Location: *
(42.0175°N, 9.4056°E)
Time: 22:52:23
(UTC+00:00)

Cosmos 1048 Rocket - Pass Details

Date: 25 August 2019
Orbit: 744 x 791 km, 74.0° (Epoch: 19 September)

Event Time Altitude Azimuth Distance (km) Brightness Sun altitude
Rises 21:08:58 0° 338° (NNW) 3,195 8.3 -28.9°
Reaches altitude 10° 21:11:20 10° 337° (NNW) 2,269 7.3 -29.1°
Enters shadow 21:15:37 61° 314° (NW) 853 4.3 -29.6°
